GW6355 Weather Reports


time (UTC)temp
C
wind
direction
speed
KPH
gust
KPH
rain 1hr
cm
rain 24hr
cm
rain mn
cm
humidity
%
barometer
mb
20260503184545 11 202 20.9 43.5 0.00 0.00 0.00 62 1015.3
20260503183040 14 198 16.1 40.2 0.00 0.00 0.00 50 1014.7
20260503181539 14 220 22.5 37.0 0.00 0.00 0.00 47 1014.4
20260503180038 15 300 12.9 27.4 0.00 0.00 0.00 47 1014.6
20260503174537 15 245 20.9 38.6 0.00 0.00 0.00 46 1015.2
20260503173039 15 214 17.7 38.6 0.00 0.00 0.00 46 1015.3
20260503171539 15 236 12.9 35.4 0.00 0.00 0.00 44 1015.4
20260503081550 4 214 4.8 8.0 0.00 0.00 0.00 70 1016.6
20260503071537 4 200 3.2 8.0 0.00 0.00 0.00 69 1016.8
20260503060107 4 217 3.2 9.7 0.00 0.00 0.00 69 1017.5
20260503054554 4 228 3.2 6.4 0.00 0.00 0.00 70 1017.3
20260503053041 3 220 1.6 3.2 0.00 0.00 0.00 72 1017.6
20260503051542 3 207 1.6 3.2 0.00 0.00 0.00 76 1017.5
20260503050040 2 167 1.6 1.6 0.00 0.00 0.00 79 1017.8
20260503044538 2 174 1.6 1.6 0.00 0.00 0.00 80 1017.6
20260503043038 3 187 0.0 1.6 0.00 0.00 0.00 77 1017.6
20260503041545 3 186 0.0 1.6 0.00 0.00 0.00 76 1017.7
20260503040042 3 0 0.0 1.6 0.00 0.00 0.00 77 1017.7
20260503034539 3 209 0.0 1.6 0.00 0.00 0.00 75 1017.8
20260503033038 3 0 0.0 0.0 0.00 0.00 0.00 70 1017.7
20260503031543 3 0 0.0 1.6 0.00 0.00 0.00 69 1017.7
20260503030044 5 213 0.0 1.6 0.00 0.00 0.00 66 1017.8
20260503024540 5 221 0.0 1.6 0.00 0.00 0.00 63 1017.8
20260503023039 3 0 0.0 1.6 0.00 0.00 0.00 66 1017.8
20260503021538 4 195 0.0 1.6 0.00 0.00 0.00 62 1017.9
20260503020038 4 0 0.0 0.0 0.00 0.00 0.00 60 1017.9
20260503014536 5 198 0.0 1.6 0.00 0.00 0.00 63 1017.8
20260503013043 5 0 0.0 0.0 0.00 0.00 0.00 58 1017.6
20260503011539 6 0 0.0 0.0 0.00 0.00 0.00 57 1017.7
20260503010039 7 274 0.0 1.6 0.00 0.00 0.00 46 1017.7
20260503004537 8 323 1.6 3.2 0.00 0.00 0.00 42 1017.7
20260503003056 8 297 4.8 8.0 0.00 0.00 0.00 46 1017.6
20260503001539 9 311 4.8 9.7 0.00 0.00 0.00 42 1017.5
20260503000039 10 316 4.8 11.3 0.00 0.00 0.00 42 1017.5
20260502234549 10 312 6.4 11.3 0.00 0.00 0.00 40 1017.5
20260502233038 9 313 11.3 19.3 0.00 0.00 0.00 43 1017.6
20260502231547 11 323 14.5 24.1 0.00 0.00 0.00 36 1017.6
20260502230042 11 307 12.9 22.5 0.00 0.00 0.00 36 1017.6
20260502224538 11 302 12.9 27.4 0.00 0.00 0.00 33 1017.5
20260502223037 11 309 9.7 22.5 0.00 0.00 0.00 34 1017.5
20260502221542 10 32 11.3 16.1 0.00 0.00 0.00 39 1017.7
20260502220041 10 314 14.5 22.5 0.00 0.00 0.00 39 1017.5
20260502214543 11 309 14.5 25.7 0.00 0.00 0.00 39 1017.5
20260502213037 11 307 12.9 22.5 0.00 0.00 0.00 38 1017.4
20260502211541 11 317 9.7 24.1 0.00 0.00 0.00 38 1017.5
20260502210041 10 324 8.0 24.1 0.00 0.00 0.00 39 1017.6
20260502204539 10 321 14.5 24.1 0.00 0.03 0.00 38 1017.7
20260502203040 10 321 8.0 16.1 0.00 0.03 0.00 39 1017.7
20260502201545 9 349 11.3 22.5 0.00 0.03 0.00 44 1018.0
20260502200042 10 285 6.4 19.3 0.00 0.03 0.00 41 1018.0
20260502194541 10 355 8.0 20.9 0.00 0.03 0.00 44 1018.2
20260502193044 10 294 11.3 19.3 0.00 0.03 0.00 43 1018.2
20260502191544 10 297 6.4 17.7 0.00 0.03 0.00 40 1018.5
20260502190037 9 314 11.3 20.9 0.00 0.03 0.00 47 1018.6